Location: Peterborough
(44.3091°N, 78.3197°W)
Time: 01:13:31
(UTC-04:00)

Tiangong - Visible Passes

Search period start: 17 April 2024 00:00
Search period end: 27 April 2024 00:00
Orbit: 371 x 380 km, 41.5° (Epoch: 16 April)

Date Brightness Start Highest point End Pass type
(mag) Time Alt. Az. Time Alt. Az. Time Alt. Az.
17 Apr -0.7 21:30:39 10° SW 21:32:36 23° S 21:32:36 23° S visible
18 Apr -0.4 20:28:42 10° SSW 20:30:48 17° SSE 20:32:56 10° ESE visible
18 Apr -0.4 22:04:04 10° WSW 22:05:29 23° SW 22:05:29 23° SW visible
19 Apr -1.4 21:01:35 10° SW 21:04:24 33° SSE 21:06:04 19° ESE visible
19 Apr 0.7 22:37:46 10° WSW 22:38:06 12° WSW 22:38:06 12° WSW visible
20 Apr -1.9 21:35:04 10° WSW 21:38:04 48° S 21:38:29 44° SSE visible
21 Apr -1.6 20:32:23 10° WSW 20:35:19 40° S 20:38:15 10° E visible
21 Apr -0.9 22:08:43 10° W 22:10:44 32° WSW 22:10:44 32° WSW visible
22 Apr -1.9 21:05:52 10° WSW 21:08:52 49° S 21:10:49 19° ESE visible
22 Apr 0.7 22:42:28 10° W 22:42:50 12° WSW 22:42:50 12° WSW visible
23 Apr -1.6 21:39:28 10° W 21:42:22 39° SSW 21:42:49 36° SSE visible
24 Apr -0.1 22:13:13 10° WSW 22:14:44 19° SW 22:14:44 19° SW visible
25 Apr -1.1 21:09:59 10° W 21:12:47 32° SSW 21:14:35 17° SE visible
26 Apr -0.1 21:43:53 10° WSW 21:45:56 16° SSW 21:46:23 16° SSW visible
